sat.trackr.live / text

‹ back to catalog

STARLINK-34873

NORAD 65346 · 2025-189Z

PAYLOAD ACTIVE UNKNOWN

§ Identity

Operator
Country
US
Launch date
2025-08-27
Launch site
AFETR
Launch vehicle
Mass (kg)
RCS (m²)

Purposes: comms

External: N2YO · Heavens-Above · Gunter

§ Orbital elements

Epoch: 2026-09-20T14:24:24.528960Z

Period
93.85 min
Inclination
53.1601°
Eccentricity
0.0001031
Mean motion
15.34392055 rev/d
Perigee alt
462.0 km
Apogee alt
463.4 km
Semi-major
6,840.9 km
B*
8.1780e-4
RAAN
18.9076°
Arg perigee
68.6294°
Mean anomaly
291.4819°
Rev number
6,099

§ Raw data

STARLINK-348731 65346U 25189Z   26263.60028390  .00027348  00000+0  81780-3 0  99962 65346  53.1601  18.9076 0001031  68.6294 291.4819 15.34392055 60998

JSON: /api/v1/satellites/65346 · /tle

For live sub-satellite position, see the globe view (requires WebGL).

§ Visibility from observer

Set your observer location to see the next 7 days of passes ≥ 10°. The values pass through the URL so the page stays shareable.

No JS? Fill the form by hand. The geolocation button needs JavaScript.